Regional Weather Roundup
Issued by NWS

Home | Current Version | Previous Version | Text Only | Print | Product List | Glossary On
Versions: 1 2 3 4 5 6 7 8 9 10 11 12 13 14 15 16 17 18 19 20 21 22 23 24 25 26 27 28 29 30 31 32 33 34 35 36 37 38 39 40 41 42 43 44 45 46 47 48 49 50
000
ASUS42 KFFC 161310
RWRGA
WEATHER ROUNDUP FOR GEORGIA
NATIONAL WEATHER SERVICE PEACHTREE CITY GA
800 AM EST SAT DEC 16 2017

NOTE: "FAIR" INDICATES FEW OR NO CLOUDS BELOW 12,000 FEET WITH NO
SIGNIFICANT WEATHER AND/OR OBSTRUCTIONS TO VISIBILITY.

* = USE WITH CAUTION. THE STATIONS MARKED WITH AN ASTERISK MAY NOT
REPORT WEATHER SUCH AS PRECIPITATION, FOG, OR THUNDER AND ARE NOT
QUALITY CONTROLLED BY NWS.

THE REMARK "TC" DENOTES TEMPERATURE READING IN DEGREES CELSIUS.

GAZ001>058-161400-
NORTH GEORGIA

CITY           SKY/WX    TMP DP  RH WIND       PRES   REMARKS
ATLANTA        CLOUDY    27  24  89 W7        30.26R WCI  19
ATHENS         PTCLDY    27  23  85 NW5       30.26R WCI  22
CHAMBLEE       CLOUDY    28  22  78 NW7       30.25S WCI  21
PEACHTREE CITY CLOUDY    24  22  91 CALM      30.29R FOG
ROME           CLOUDY    22  20  92 CALM      30.29R
WEST ATLANTA   CLOUDY    28  23  81 S3        30.27R
GAINESVILLE    CLOUDY    27  23  85 NW5       30.24R WCI  22
CARTERSVILLE   PTCLDY    22  22 100 CALM      30.29S FOG


CITY           SKY/WX    TMP DP  RH WIND       PRES   REMARKS
DALTON*        CLOUDY    23  23 100 CALM      30.30R
LAWRENCEVILLE* CLOUDY    28  23  81 CALM      30.24R
MARIETTA       MOCLDY    26  21  82 W6        30.25R WCI  19
KENNESAW*      CLEAR     27  23  85 VRB3      30.27R
CANTON*        PTCLDY    30  27  86 CALM      30.25S
$$

GAZ059>098-102>109-161400-
CENTRAL GEORGIA

CITY           SKY/WX    TMP DP  RH WIND       PRES   REMARKS
AUGUSTA-BUSH   CLOUDY    26  24  92 CALM      30.29R
AUGUSTA-DANIEL CLOUDY    30  24  78 CALM      30.28R
COLUMBUS       CLOUDY    28  24  85 CALM      30.31R
MACON          CLOUDY    27  24  89 N3        30.29R
ROBINS AFB     CLEAR     28  25  86 CALM      30.29R


CITY           SKY/WX    TMP DP  RH WIND       PRES   REMARKS
LAGRANGE*      CLOUDY    24  23  97 CALM      30.30R
SYLVANIA*      CLOUDY    30  29  98 CALM      30.31R
MILLEDGEVILLE* CLOUDY    30  28  93 CALM      30.29R
$$

GAZ099>101-110>166-161400-
SOUTH GEORGIA

CITY           SKY/WX    TMP DP  RH WIND       PRES   REMARKS
SAVANNAH       PTCLDY    36  28  73 N6        30.30R WCI  31
VALDOSTA       CLEAR     40  30  67 NE5       30.28R
ALMA           PTCLDY    36  28  73 N5        30.29R WCI  32
ST SIMONS      PTCLDY    43  30  60 N5        30.28R
FT STEWART       N/A    N/A N/A N/A MISG        N/A
ALBANY         PTCLDY    36  28  73 N3        30.32R
HUNTER AFB       N/A    N/A N/A N/A MISG        N/A
MOODY AFB      CLEAR     38  31  75 N3        30.27R
BRUNSWICK      PTCLDY    39  30  70 CALM      30.30R


CITY           SKY/WX    TMP DP  RH WIND       PRES   REMARKS
BAINBRIDGE*    CLEAR     37  34  87 CALM      30.31R
MOULTRIE*      PTCLDY    37  32  81 CALM      30.30R
VIDALIA*       CLOUDY    34  30  86 N3        30.30R
WAYCROSS*      PTCLDY    37  30  76 CALM      30.30R
DOUGLAS*       PTCLDY    36  28  75 CALM      30.30R
$$




USA.gov is the U.S. government's official web portal to all federal, state and local government web resources and services.